Back to catalog

SL-8 R/B

AlivePO
NORAD 27437·ROCKET BODY·🇷🇺 Russia

Launched May 28, 2002 from Plesetsk Cosmodrome

Loading…

Next Passes (next 24 hours)

TLE

FreshSource: Space-Track

Epoch: Sep 14, 2026, 22:02 UTC

1 27437U 02026B   26257.91808677  .00000149  00000-0  13516-3 0  9994
2 27437  82.9457  83.3890 0042464 294.9188  64.7559 13.76962975220928

Track SL-8 R/B in real time with AllMySat

Download on the App Store